COSMOS 1235

导读

COSMOS 1235 是一颗由苏联(现俄罗斯)于1980年12月15日发射的军用通信卫星,搭载质子-K火箭进入轨道。该卫星属于“天线”(Antey)系列,主要用于军事通信和情报传输。其具体任务细节未公开,但推测具备中继通信和加密传输功能。COSMOS 1235 在轨运行多年,最终失去联系或退役,成为轨道上的废弃物体。该卫星体现了冷战时期苏联在空间通信领域的技术能力。

Basic Information
目录编号:
12114
目录名称:
COSMOS 1235
国际标识:
1980-102H
轨道中心:
EARTH
卫星名称:
COSMOS 1235
卫星全名:
--
卫星状态:
在轨 (已飞行16701 天)
发射日期:
1980-12-23 UTC
国别 :
俄罗斯(独联体) (CIS)
星等 :
--
This satellite is enrolled in the Space Conjunction Data Service (SCDS) and the current flight risk assessment level is: No High Risk
Orbit Information
数据来源 国际轨道数据 AOE轨道数据
星历时间 2026-09-13T20:49:32+0800
18小时前
查看轨道信息
2026-09-12T23:00:00+0800
1天前
查看轨道信息
半长轴 7816.657km 7816.612km
偏心率 0.0033062 0.003331
轨道倾角 73.991° 73.991°
近地点辐角 324.277° 325.784°
升交点赤经 268.276° 269.500°
平近点角 156.099° 3.318°
近地点 1412.676km 1412.437km
远地点 1464.364km 1464.513km
周期 114.628分钟 114.627分钟
每日圈数 12.562359 12.562469
Detailed Information
使用方式:
暂无
2D Orbit Map
3D Orbit Map
Orbit Altitude Analysis Chart
Orbit Inclination Analysis Chart
Orbit Comprehensive Analysis Chart
View Comprehensive Chart
Miss Distance Evolution Trend with All Objects Subscribe to Flight Safety Assessment
Collision Probability Evolution Trend with All Objects Subscribe to Flight Safety Assessment